Time[GMT],temperature[C](50m),salinity[psu](50m),sigma_t[kg/m^3](50m),dissolved_oxygen[ml/l](50m),oxygen_saturation[ml/l](50m),percent_oxygen_saturation[%](50m),conductivity[msiemens/cm](50m),pressure[decibars](50m)
2022-09-09 16:00,10.81,32.295,24.703,,6.3134,,36.170,
2022-09-09 17:00,10.68,32.270,24.707,,6.3323,,36.030,
2022-09-09 18:00,10.77,32.300,24.714,,6.3187,,36.140,
2022-09-09 19:00,10.79,32.312,24.720,,6.3155,,36.170,
2022-09-09 20:00,10.47,32.336,24.794,,6.3588,,35.910,
2022-09-09 21:00,10.21,32.327,24.830,,6.3956,,35.670,
2022-09-09 22:00,10.08,32.372,24.888,,6.4121,,35.600,
2022-09-09 23:00,10.11,32.355,24.870,,6.4086,,35.610,
2022-09-10 00:00,10.15,32.360,24.866,,6.4027,,35.650,
2022-09-10 03:00,,,,,,,,
2022-09-10 04:00,,,,,,,,
2022-09-10 05:00,,,,,,,,
2022-09-10 06:00,,,,,,,,
2022-09-10 07:00,,,,,,,,
2022-09-10 08:00,,,,,,,,
2022-09-10 09:00,,,,,,,,
2022-09-10 10:00,,,,,,,,
2022-09-10 11:00,,,,,,,,
2022-09-10 12:00,,,,,,,,
2022-09-10 13:00,,,,,,,,
2022-09-10 14:00,,,,,,,,
2022-09-10 15:00,,,,,,,,
2022-09-10 16:00,,,,,,,,
2022-09-10 17:00,,,,,,,,
2022-09-10 18:00,10.38,32.346,24.817,,6.3710,,35.840,
2022-09-10 19:00,,,,,,,,
2022-09-10 20:00,10.55,32.355,24.795,,6.3469,,36.000,
2022-09-10 21:00,,,,,,,,
2022-09-10 22:00,,,,,,,,
2022-09-10 23:00,,,,,,,,
2022-09-11 00:00,,,,,,,,
2022-09-11 01:00,,,,,,,,
2022-09-11 02:00,,,,,,,,
2022-09-11 03:00,,,,,,,,
2022-09-11 04:00,,,,,,,,
2022-09-11 05:00,,,,,,,,
2022-09-11 06:00,,,,,,,,
2022-09-11 07:00,,,,,,,,
2022-09-11 08:00,,,,,,,,
2022-09-11 09:00,,,,,,,,
2022-09-11 10:00,,,,,,,,
2022-09-11 11:00,,,,,,,,
2022-09-11 12:00,,,,,,,,
2022-09-11 15:00,10.15,32.360,24.866,,6.4027,,35.650,
2022-09-11 16:00,10.63,32.314,24.750,,6.3375,,36.030,
2022-09-11 17:00,10.69,32.321,24.744,,6.3289,,36.090,
2022-09-11 18:00,10.54,32.354,24.796,,6.3484,,35.990,
2022-09-11 19:00,10.42,32.351,24.814,,6.3652,,35.880,
2022-09-11 20:00,10.51,32.331,24.783,,6.3535,,35.940,
2022-09-11 21:00,10.31,32.358,24.838,,6.3803,,35.790,
2022-09-11 22:00,10.17,32.382,24.881,,6.3990,,35.690,
2022-09-11 23:00,10.56,32.306,24.755,,6.3475,,35.960,
2022-09-12 00:00,10.05,32.389,24.906,,6.4157,,35.590,
2022-09-12 01:00,9.74,32.413,24.976,4.631,6.4588,71.71,35.340,50.13
2022-09-12 02:00,10.25,32.371,24.859,4.780,6.3882,74.82,35.750,50.19
2022-09-12 03:00,10.21,32.377,24.870,4.751,6.3936,74.32,35.720,49.90
2022-09-12 04:00,10.33,32.360,24.837,4.732,6.3774,74.20,35.810,49.95
2022-09-12 05:00,10.24,32.380,24.867,4.754,6.3892,74.41,35.750,50.08
2022-09-12 06:00,10.23,32.399,24.884,4.716,6.3899,73.80,35.760,49.40
2022-09-12 07:00,10.55,32.355,24.795,4.727,6.3469,74.47,36.000,49.00
2022-09-12 08:00,10.66,32.348,24.770,4.731,6.3320,74.71,36.090,49.11
2022-09-12 09:00,10.75,32.348,24.755,4.737,6.3196,74.96,36.170,49.69
2022-09-12 10:00,10.61,32.342,24.775,4.724,6.3391,74.52,36.040,49.67
2022-09-12 11:00,10.40,32.348,24.815,4.770,6.3681,74.91,35.860,49.92
2022-09-12 12:00,10.49,32.329,24.785,4.757,6.3563,74.84,35.920,50.07
2022-09-12 13:00,9.99,32.432,24.950,4.709,6.4224,73.32,35.580,50.54
2022-09-12 14:00,9.93,32.425,24.954,4.676,6.4312,72.71,35.520,50.12
2022-09-12 15:00,10.06,32.420,24.929,4.724,6.4130,73.67,35.630,50.08
2022-09-12 16:00,10.12,32.397,24.900,4.708,6.4055,73.50,35.660,50.04
2022-09-12 17:00,10.28,32.395,24.872,4.723,6.3830,74.00,35.800,50.31
2022-09-12 18:00,10.26,32.373,24.858,4.723,6.3867,73.95,35.760,50.70
2022-09-12 19:00,10.21,32.387,24.878,4.721,6.3932,73.85,35.730,49.96
2022-09-12 20:00,10.23,32.389,24.876,4.726,6.3903,73.95,35.750,49.77
2022-09-12 21:00,10.14,32.409,24.907,4.716,6.4021,73.66,35.690,49.87
2022-09-12 22:00,10.27,32.384,24.865,4.728,6.3849,74.05,35.780,50.15
2022-09-12 23:00,10.34,32.372,24.844,4.773,6.3755,74.86,35.830,50.32
2022-09-13 00:00,10.10,32.425,24.925,4.739,6.4071,73.97,35.670,50.26
2022-09-13 01:00,10.16,32.422,24.913,4.759,6.3988,74.37,35.720,50.43
2022-09-13 02:00,10.04,32.438,24.946,4.710,6.4151,73.41,35.630,50.16
2022-09-13 03:00,10.09,32.424,24.926,4.751,6.4086,74.13,35.660,50.49
2022-09-13 04:00,10.09,32.414,24.918,4.744,6.4090,74.02,35.650,50.35
2022-09-13 05:00,10.21,32.387,24.878,4.053,6.3932,63.40,35.730,50.30
2022-09-13 06:00,10.12,32.407,24.908,4.665,6.4050,72.84,35.670,50.46
2022-09-13 07:00,10.13,32.408,24.907,4.661,6.4036,72.78,35.680,49.93
2022-09-13 08:00,10.17,32.403,24.896,4.656,6.3982,72.78,35.710,49.96
2022-09-13 09:00,10.15,32.400,24.898,4.665,6.4011,72.88,35.690,49.89
2022-09-13 10:00,10.11,32.416,24.917,4.682,6.4061,73.09,35.670,49.84
2022-09-13 11:00,10.09,32.414,24.918,4.705,6.4090,73.41,35.650,50.33
2022-09-13 12:00,10.08,32.412,24.919,4.702,6.4105,73.36,35.640,50.23
2022-09-13 13:00,10.06,32.430,24.936,4.701,6.4126,73.31,35.640,50.23
2022-09-13 14:00,10.02,32.436,24.947,4.649,6.4180,72.44,35.610,50.32
2022-09-13 16:00,10.15,32.400,24.898,4.662,6.4011,72.83,35.690,50.35
2022-09-13 17:00,10.24,32.390,24.875,4.665,6.3888,73.02,35.760,50.36
2022-09-13 18:00,10.10,32.415,24.918,4.657,6.4075,72.68,35.660,50.51
2022-09-13 19:00,10.08,32.412,24.919,4.656,6.4105,72.63,35.640,50.31
2022-09-13 20:00,10.12,32.407,24.908,4.665,6.4050,72.84,35.670,50.35
2022-09-13 21:00,10.11,32.406,24.909,4.660,6.4065,72.73,35.660,50.23
2022-09-13 22:00,10.16,32.401,24.897,4.684,6.3996,73.19,35.700,50.26
2022-09-13 23:00,10.12,32.407,24.908,4.659,6.4050,72.73,35.670,50.15
2022-09-14 00:00,10.07,32.411,24.920,4.697,6.4119,73.25,35.630,50.32
2022-09-14 01:00,10.07,32.421,24.928,4.710,6.4115,73.46,35.640,50.23
2022-09-14 02:00,10.07,32.421,24.928,4.730,6.4115,73.77,35.640,50.22
2022-09-14 03:00,9.99,32.442,24.958,4.669,6.4220,72.70,35.590,50.27
2022-09-14 04:00,9.99,32.432,24.950,4.692,6.4224,73.06,35.580,49.78
2022-09-14 05:00,10.01,32.414,24.932,4.690,6.4203,73.06,35.580,49.76
2022-09-14 06:00,10.11,32.396,24.901,4.716,6.4069,73.61,35.650,49.67
2022-09-14 07:00,10.07,32.411,24.920,4.641,6.4119,72.38,35.630,49.06
2022-09-14 08:00,10.15,32.400,24.898,4.718,6.4011,73.71,35.690,48.49
2022-09-14 09:00,10.13,32.408,24.907,4.730,6.4036,73.86,35.680,48.15
2022-09-14 10:00,10.15,32.420,24.914,4.757,6.4003,74.32,35.710,47.79
2022-09-14 11:00,10.01,32.404,24.924,4.687,6.4207,73.01,35.570,47.55
2022-09-14 12:00,9.93,32.415,24.946,4.680,6.4316,72.76,35.510,48.17
2022-09-14 13:00,9.96,32.419,24.944,4.679,6.4272,72.81,35.540,48.53
2022-09-14 14:00,10.01,32.425,24.940,4.697,6.4199,73.16,35.590,49.36
2022-09-14 15:00,10.30,32.407,24.878,4.786,6.3797,75.02,35.830,49.94
2022-09-14 16:00,9.94,32.427,24.953,4.685,6.4297,72.86,35.530,49.93
2022-09-14 17:00,9.95,32.407,24.937,4.724,6.4291,73.48,35.520,49.99
2022-09-14 18:00,10.29,32.446,24.910,4.773,6.3795,74.82,35.860,50.43
2022-09-14 19:00,10.31,32.429,24.893,4.729,6.3774,74.15,35.860,50.36
2022-09-14 20:00,10.25,32.422,24.898,4.696,6.3861,73.54,35.800,50.41
2022-09-14 21:00,10.22,32.418,24.900,4.670,6.3905,73.08,35.770,50.21
2022-09-14 22:00,10.24,32.421,24.899,4.674,6.3876,73.18,35.790,50.21
2022-09-14 23:00,10.43,32.452,24.891,4.754,6.3597,74.75,35.990,50.28
2022-09-15 00:00,10.40,32.449,24.894,4.757,6.3640,74.75,35.960,50.33
2022-09-15 01:00,10.40,32.459,24.901,4.773,6.3636,75.01,35.970,50.36
2022-09-15 02:00,10.57,32.457,24.871,4.806,6.3401,75.81,36.120,50.42
2022-09-15 03:00,9.91,32.403,24.940,4.666,6.4350,72.51,35.480,50.49
2022-09-15 04:00,10.49,32.469,24.894,4.763,6.3507,75.00,36.060,50.28
2022-09-15 05:00,10.67,32.488,24.878,4.784,6.3250,75.64,36.240,50.22
2022-09-15 06:00,11.13,32.507,24.812,4.452,6.2613,71.10,36.670,50.21
2022-09-15 07:00,11.24,32.528,24.809,4.851,6.2456,77.67,36.790,49.67
2022-09-15 08:00,11.10,32.504,24.815,4.797,6.2655,76.56,36.640,49.00
2022-09-15 09:00,10.73,32.475,24.857,4.765,6.3173,75.43,36.280,48.21
2022-09-15 10:00,11.00,32.484,24.817,4.760,6.2799,75.80,36.530,47.66
2022-09-15 11:00,10.94,32.517,24.853,4.808,6.2868,76.48,36.510,48.05
2022-09-15 12:00,11.26,32.530,24.807,4.861,6.2429,77.87,36.810,48.32
2022-09-15 13:00,10.52,32.462,24.883,4.747,6.3468,74.79,36.080,48.91
2022-09-15 14:00,10.40,32.459,24.901,4.754,6.3636,74.70,35.970,48.88
2022-09-15 15:00,11.53,32.537,24.764,4.856,6.2064,78.25,37.060,48.22
2022-09-15 16:00,10.55,32.455,24.873,4.763,6.3429,75.09,36.100,48.55
2022-09-15 17:00,11.15,32.529,24.825,4.826,6.2578,77.12,36.710,48.34
2022-09-15 18:00,11.15,32.519,24.818,4.829,6.2582,77.17,36.700,49.33
2022-09-15 19:00,11.43,32.478,24.736,4.796,6.2220,77.08,36.910,48.91
2022-09-15 20:00,11.35,32.480,24.752,4.789,6.2327,76.83,36.840,49.30
2022-09-15 21:00,11.30,32.485,24.765,4.797,6.2393,76.89,36.800,48.97
2022-09-15 22:00,11.40,32.475,24.739,4.783,6.2262,76.82,36.880,48.76
2022-09-15 23:00,11.42,32.477,24.737,4.784,6.2234,76.87,36.900,48.34
2022-09-16 00:00,11.22,32.428,24.734,4.741,6.2523,75.82,36.670,48.90
2022-09-16 01:00,11.53,32.449,24.696,4.779,6.2098,76.96,36.970,49.16
2022-09-16 02:00,11.70,32.544,24.738,4.875,6.1835,78.84,37.220,49.54
2022-09-16 03:00,11.18,32.532,24.823,4.838,6.2536,77.37,36.740,49.92
2022-09-16 04:00,9.95,32.438,24.961,4.617,6.4279,71.83,35.550,49.64
2022-09-16 05:00,9.94,32.437,24.961,4.612,6.4293,71.73,35.540,49.52
2022-09-16 06:00,10.00,32.434,24.949,4.628,6.4209,72.08,35.590,49.52
2022-09-16 07:00,10.04,32.438,24.946,4.650,6.4151,72.49,35.630,49.09
2022-09-16 08:00,10.73,32.435,24.826,4.821,6.3188,76.30,36.240,48.84
2022-09-16 09:00,11.28,32.503,24.782,4.863,6.2413,77.92,36.800,48.77
2022-09-16 10:00,11.59,32.524,24.742,4.882,6.1989,78.75,37.100,48.06
2022-09-16 11:00,11.12,32.486,24.798,4.843,6.2635,77.33,36.640,48.46
2022-09-16 12:00,11.06,32.480,24.804,4.837,6.2719,77.13,36.580,48.84
2022-09-16 13:00,10.73,32.385,24.788,4.657,6.3208,73.68,36.190,48.48
2022-09-16 14:00,10.65,32.356,24.779,4.442,6.3330,70.14,36.090,48.95
2022-09-16 15:00,10.31,32.368,24.846,4.487,6.3799,70.34,35.800,49.52
2022-09-16 16:00,10.02,32.446,24.955,4.639,6.4176,72.28,35.620,49.73
2022-09-16 17:00,9.85,32.447,24.984,4.555,6.4417,70.71,35.470,49.59
2022-09-16 18:00,10.09,32.414,24.918,4.639,6.4090,72.38,35.650,49.76
2022-09-16 19:00,10.27,32.374,24.857,4.488,6.3853,70.29,35.770,49.90
2022-09-16 20:00,10.25,32.381,24.867,4.355,6.3878,68.18,35.760,49.57
2022-09-16 21:00,10.50,32.360,24.807,4.474,6.3537,70.41,35.960,49.64
2022-09-16 22:00,10.28,32.375,24.856,4.513,6.3838,70.70,35.780,49.87
2022-09-16 23:00,10.06,32.420,24.929,4.609,6.4130,71.87,35.630,49.71
2022-09-17 00:00,10.13,32.428,24.923,4.677,6.4028,73.04,35.700,49.36
2022-09-17 01:00,10.17,32.423,24.912,4.689,6.3973,73.29,35.730,49.48
2022-09-17 02:00,10.14,32.419,24.914,4.656,6.4017,72.73,35.700,49.68
2022-09-17 03:00,,,,,,,,
2022-09-17 04:00,10.09,32.403,24.910,4.570,6.4094,71.29,35.640,48.46
2022-09-17 05:00,10.17,32.392,24.889,4.578,6.3986,71.54,35.700,48.63
2022-09-17 06:00,10.04,32.418,24.930,4.565,6.4159,71.15,35.610,48.50
2022-09-17 07:00,10.51,32.371,24.814,4.607,6.3519,72.52,35.980,48.44
2022-09-17 08:00,10.54,32.364,24.804,4.587,6.3480,72.26,36.000,48.91
2022-09-17 09:00,,,,,,,,
2022-09-17 10:00,10.32,32.389,24.861,4.545,6.3776,71.26,35.830,50.11
2022-09-17 11:00,10.62,32.363,24.789,4.549,6.3369,71.79,36.070,50.08
2022-09-17 12:00,10.44,32.363,24.820,4.549,6.3619,71.50,35.910,50.05
2022-09-17 13:00,10.18,32.394,24.888,4.501,6.3971,70.35,35.710,50.08
2022-09-17 14:00,10.20,32.386,24.878,4.499,6.3946,70.35,35.720,49.97
2022-09-17 15:00,10.28,32.375,24.856,4.510,6.3838,70.65,35.780,49.95
2022-09-17 16:00,9.82,32.443,24.986,4.495,6.4462,69.74,35.440,50.13
2022-09-17 17:00,9.84,32.456,24.992,4.539,6.4428,70.45,35.470,50.26
2022-09-17 18:00,9.85,32.447,24.984,4.518,6.4417,70.14,35.470,50.26
2022-09-17 19:00,10.02,32.446,24.955,4.566,6.4176,71.15,35.620,50.24
2022-09-17 20:00,10.20,32.376,24.870,4.463,6.3950,69.79,35.710,50.19
2022-09-17 21:00,10.26,32.373,24.858,4.427,6.3867,69.31,35.760,50.34
2022-09-17 22:00,10.26,32.373,24.858,4.453,6.3867,69.73,35.760,50.19
2022-09-17 23:00,10.22,32.378,24.869,4.438,6.3921,69.42,35.730,50.42
2022-09-18 00:00,10.15,32.380,24.882,4.442,6.4019,69.38,35.670,50.06
2022-09-18 01:00,10.25,32.371,24.859,4.435,6.3882,69.42,35.750,50.01
2022-09-18 02:00,9.99,32.361,24.894,4.373,6.4253,68.06,35.510,49.87
2022-09-18 03:00,9.91,32.423,24.956,4.380,6.4342,68.07,35.500,49.52
2022-09-18 04:00,10.05,32.439,24.945,4.388,6.4136,68.42,35.640,49.60
2022-09-18 05:00,10.56,32.426,24.849,4.528,6.3427,71.38,36.080,50.07
2022-09-18 06:00,10.08,32.301,24.832,4.385,6.4150,68.36,35.530,50.23
2022-09-18 07:00,10.28,32.365,24.848,4.441,6.3842,69.57,35.770,50.10
2022-09-18 08:00,9.76,32.426,24.982,4.449,6.4555,68.92,35.370,49.90
2022-09-18 09:00,10.12,32.407,24.908,4.431,6.4050,69.18,35.670,49.68
2022-09-18 10:00,10.43,32.402,24.852,4.490,6.3617,70.58,35.940,49.85
2022-09-18 11:00,10.21,32.397,24.885,4.464,6.3928,69.84,35.740,49.36
2022-09-18 12:00,9.89,32.411,24.949,4.426,6.4375,68.75,35.470,49.61
2022-09-18 13:00,9.98,32.411,24.935,4.476,6.4247,69.66,35.550,49.25
2022-09-18 14:00,10.42,32.361,24.822,4.473,6.3648,70.27,35.890,48.89
2022-09-18 15:00,10.32,32.379,24.853,4.512,6.3780,70.75,35.820,49.00
2022-09-18 16:00,10.17,32.392,24.889,4.502,6.3986,70.36,35.700,49.19
2022-09-18 17:00,10.15,32.390,24.890,4.491,6.4015,70.15,35.680,49.75
2022-09-18 18:00,10.76,32.319,24.731,4.532,6.3193,71.72,36.150,49.80
2022-09-18 19:00,10.49,32.349,24.800,4.482,6.3555,70.52,35.940,50.10
2022-09-18 20:00,9.80,32.441,24.987,4.488,6.4491,69.58,35.420,49.99
2022-09-18 21:00,9.82,32.433,24.978,4.472,6.4466,69.37,35.430,50.05
2022-09-18 22:00,9.68,32.426,24.996,4.418,6.4669,68.31,35.300,50.09
2022-09-18 23:00,10.04,32.408,24.922,4.476,6.4163,69.76,35.600,49.85
2022-09-19 00:00,9.95,32.418,24.945,4.475,6.4287,69.61,35.530,49.90
2022-09-19 01:00,10.01,32.414,24.932,4.489,6.4203,69.91,35.580,49.75
2022-09-19 02:00,10.20,32.406,24.894,4.538,6.3938,70.97,35.740,49.92
2022-09-19 03:00,10.19,32.405,24.895,4.532,6.3953,70.87,35.730,50.18
2022-09-19 04:00,10.52,32.382,24.821,4.523,6.3500,71.23,36.000,50.38
2022-09-19 05:00,10.42,32.391,24.845,4.524,6.3636,71.09,35.920,50.33
2022-09-19 06:00,10.61,32.372,24.798,4.560,6.3379,71.94,36.070,49.85
2022-09-19 07:00,9.94,32.427,24.953,4.463,6.4297,69.41,35.530,49.96
2022-09-19 08:00,,,,,,,,
2022-09-19 09:00,10.44,32.363,24.820,4.510,6.3619,70.89,35.910,49.85
2022-09-19 10:00,10.00,32.444,24.957,4.499,6.4205,70.07,35.600,49.57
2022-09-19 11:00,10.19,32.415,24.903,4.515,6.3948,70.61,35.740,50.31
2022-09-19 12:00,10.25,32.412,24.890,4.509,6.3865,70.60,35.790,50.11
2022-09-19 13:00,10.26,32.453,24.921,4.566,6.3835,71.53,35.840,50.58
2022-09-19 14:00,10.44,32.413,24.859,4.554,6.3599,71.61,35.960,50.30
2022-09-19 15:00,10.62,32.423,24.836,4.629,6.3345,73.07,36.130,50.02
2022-09-19 16:00,10.75,32.437,24.824,4.617,6.3160,73.11,36.260,50.13
2022-09-19 17:00,10.43,32.412,24.860,4.562,6.3613,71.71,35.950,50.59
2022-09-19 18:00,10.55,32.395,24.826,4.533,6.3453,71.44,36.040,50.32
2022-09-19 19:00,,,,,,,,
2022-09-19 20:00,10.16,32.432,24.921,4.505,6.3984,70.41,35.730,50.08
2022-09-19 21:00,10.23,32.460,24.931,4.549,6.3874,71.22,35.820,50.37
2022-09-19 22:00,10.31,32.459,24.917,4.593,6.3762,72.04,35.890,50.14
2022-09-19 23:00,10.15,32.461,24.945,4.532,6.3986,70.82,35.750,49.91
2022-09-20 00:00,10.27,32.464,24.928,4.532,6.3816,71.01,35.860,50.04
2022-09-20 01:00,10.33,32.481,24.931,4.607,6.3725,72.29,35.930,50.04
2022-09-20 02:00,10.29,32.467,24.926,4.589,6.3787,71.94,35.880,49.62
2022-09-20 03:00,10.21,32.458,24.933,4.581,6.3903,71.69,35.800,49.49
2022-09-20 04:00,10.40,32.469,24.909,4.606,6.3632,72.38,35.980,49.41
2022-09-20 05:00,10.36,32.464,24.913,4.610,6.3690,72.39,35.940,48.50
2022-09-20 06:00,10.55,32.465,24.881,4.639,6.3425,73.13,36.110,48.80
2022-09-20 07:00,10.86,32.479,24.838,4.689,6.2992,74.43,36.400,49.38
2022-09-20 08:00,10.36,32.474,24.920,4.613,6.3686,72.44,35.950,49.79
2022-09-20 09:00,10.04,32.479,24.977,4.537,6.4134,70.73,35.670,50.29
2022-09-20 10:00,10.23,32.470,24.939,4.539,6.3870,71.07,35.830,50.65
2022-09-20 11:00,10.45,32.484,24.913,4.600,6.3556,72.38,36.040,50.50
2022-09-20 12:00,10.23,32.470,24.939,4.549,6.3870,71.22,35.830,50.50
2022-09-20 13:00,10.13,32.499,24.978,4.566,6.3999,71.34,35.770,49.91
2022-09-20 14:00,10.05,32.480,24.977,4.502,6.4120,70.22,35.680,49.91
2022-09-20 15:00,10.17,32.514,24.983,4.633,6.3937,72.47,35.820,50.05
2022-09-20 16:00,10.32,32.520,24.963,4.676,6.3723,73.37,35.960,49.63
2022-09-20 17:00,10.39,32.518,24.949,4.697,6.3627,73.83,36.020,49.53
2022-09-20 18:00,10.37,32.506,24.943,4.654,6.3659,73.11,35.990,49.60
2022-09-20 19:00,10.27,32.525,24.975,4.688,6.3792,73.48,35.920,49.92
2022-09-20 20:00,10.35,32.513,24.952,4.686,6.3684,73.57,35.980,49.67
2022-09-20 21:00,10.35,32.513,24.952,4.699,6.3684,73.78,35.980,50.12
2022-09-20 22:00,10.42,32.531,24.954,4.661,6.3579,73.31,36.060,49.72
2022-09-20 23:00,10.47,32.527,24.942,4.685,6.3512,73.76,36.100,49.90
2022-09-21 00:00,10.72,32.553,24.920,4.682,6.3155,74.14,36.350,50.20
2022-09-21 01:00,10.65,32.556,24.934,4.667,6.3250,73.79,36.290,50.17
2022-09-21 02:00,10.64,32.555,24.935,4.668,6.3265,73.79,36.280,50.15
2022-09-21 03:00,10.59,32.559,24.947,4.638,6.3332,73.23,36.240,49.91
2022-09-21 04:00,10.57,32.547,24.941,4.640,6.3364,73.23,36.210,50.21
2022-09-21 05:00,10.58,32.548,24.941,4.630,6.3350,73.08,36.220,50.22
2022-09-21 06:00,10.57,32.537,24.934,4.641,6.3369,73.23,36.200,49.70
2022-09-21 07:00,10.57,32.547,24.941,4.647,6.3364,73.34,36.210,49.89
2022-09-21 08:00,10.56,32.546,24.942,4.648,6.3379,73.34,36.200,49.68
2022-09-21 09:00,10.59,32.539,24.932,4.645,6.3340,73.34,36.220,49.96
2022-09-21 10:00,10.66,32.547,24.926,4.644,6.3240,73.43,36.290,50.42
2022-09-21 11:00,11.07,32.580,24.879,4.749,6.2666,75.79,36.690,50.32
2022-09-21 12:00,10.80,32.562,24.913,4.689,6.3042,74.39,36.430,50.35
2022-09-21 13:00,10.99,32.601,24.910,4.754,6.2766,75.75,36.640,50.30
2022-09-21 14:00,10.93,32.575,24.901,4.717,6.2858,75.04,36.560,50.05
2022-09-21 15:00,10.86,32.578,24.915,4.708,6.2953,74.79,36.500,50.11
2022-09-21 16:00,10.90,32.572,24.903,4.694,6.2901,74.63,36.530,50.20
2022-09-21 17:00,10.91,32.583,24.910,4.699,6.2883,74.73,36.550,50.02
2022-09-21 18:00,10.95,32.587,24.906,4.717,6.2826,75.09,36.590,50.23
2022-09-21 19:00,10.98,32.590,24.904,4.720,6.2784,75.18,36.620,49.48
2022-09-21 20:00,10.95,32.577,24.899,4.708,6.2830,74.93,36.580,50.05
2022-09-21 21:00,10.95,32.587,24.906,4.717,6.2826,75.09,36.590,49.75
2022-09-21 22:00,11.06,32.589,24.888,4.712,6.2676,75.17,36.690,49.85
2022-09-21 23:00,,,,,,,,
2022-09-22 00:00,10.99,32.581,24.895,4.713,6.2774,75.08,36.620,50.04
2022-09-22 01:00,10.99,32.591,24.903,4.716,6.2770,75.13,36.630,49.94
2022-09-22 02:00,11.11,32.584,24.875,4.735,6.2610,75.63,36.730,50.40
2022-09-22 03:00,11.02,32.584,24.892,4.713,6.2732,75.13,36.650,50.39
2022-09-22 04:00,11.00,32.582,24.894,4.696,6.2760,74.82,36.630,50.12
2022-09-22 05:00,11.00,32.573,24.886,4.686,6.2764,74.67,36.620,50.17
2022-09-22 06:00,11.01,32.583,24.893,4.730,6.2746,75.39,36.640,50.42
2022-09-22 07:00,10.87,32.579,24.914,4.675,6.2939,74.27,36.510,50.24
2022-09-22 08:00,10.65,32.566,24.942,4.605,6.3246,72.81,36.300,49.98
2022-09-22 09:00,10.98,32.590,24.904,4.727,6.2784,75.29,36.620,50.04
2022-09-22 10:00,10.98,32.590,24.904,4.714,6.2784,75.08,36.620,50.01
2022-09-22 11:00,11.04,32.577,24.882,4.711,6.2708,75.13,36.660,50.15
2022-09-22 12:00,,,,,,,,
2022-09-22 13:00,10.95,32.577,24.899,4.669,6.2830,74.31,36.580,50.39
2022-09-22 14:00,10.95,32.597,24.914,4.656,6.2822,74.11,36.600,49.70
2022-09-22 15:00,11.03,32.585,24.891,4.696,6.2718,74.87,36.660,50.03
2022-09-22 16:00,10.76,32.577,24.932,4.664,6.3090,73.93,36.410,50.15
2022-09-22 17:00,11.29,32.592,24.850,4.750,6.2364,76.17,36.900,50.19
2022-09-22 18:00,10.73,32.584,24.943,4.680,6.3129,74.14,36.390,49.70
2022-09-22 19:00,10.73,32.574,24.935,4.690,6.3133,74.29,36.380,48.62
2022-09-22 20:00,10.74,32.575,24.934,4.712,6.3119,74.65,36.390,49.25
2022-09-22 21:00,10.75,32.576,24.933,4.711,6.3105,74.65,36.400,49.37
2022-09-22 22:00,10.92,32.584,24.909,4.692,6.2869,74.63,36.560,49.68
2022-09-22 23:00,10.78,32.570,24.922,4.711,6.3066,74.70,36.420,49.90
2022-09-23 00:00,10.43,32.562,24.977,4.662,6.3553,73.36,36.100,49.87
2022-09-23 01:00,10.67,32.578,24.948,4.677,6.3214,73.99,36.330,49.37
2022-09-23 02:00,10.71,32.572,24.937,4.660,6.3161,73.78,36.360,49.16
2022-09-23 03:00,10.71,32.582,24.944,4.653,6.3157,73.68,36.370,48.69
2022-09-23 04:00,10.72,32.573,24.936,4.656,6.3147,73.73,36.370,47.99
2022-09-23 05:00,10.79,32.581,24.929,4.677,6.3048,74.18,36.440,47.50
2022-09-23 06:00,10.88,32.590,24.921,4.673,6.2921,74.27,36.530,47.37
2022-09-23 07:00,11.08,32.581,24.878,4.752,6.2652,75.84,36.700,48.67
2022-09-23 08:00,10.99,32.572,24.887,4.707,6.2778,74.98,36.610,48.71
2022-09-23 09:00,11.01,32.593,24.901,4.740,6.2742,75.54,36.650,47.55
2022-09-23 10:00,11.03,32.595,24.899,4.744,6.2714,75.64,36.670,48.00
2022-09-23 11:00,11.14,32.567,24.857,4.748,6.2576,75.88,36.740,48.70
2022-09-23 12:00,11.12,32.575,24.867,4.744,6.2600,75.78,36.730,48.71
2022-09-23 13:00,11.17,32.550,24.839,4.730,6.2542,75.62,36.750,48.70
2022-09-23 14:00,11.13,32.546,24.843,4.650,6.2598,74.29,36.710,48.76
2022-09-23 15:00,11.19,32.562,24.845,4.695,6.2510,75.11,36.780,49.21
2022-09-23 16:00,11.27,32.482,24.768,4.586,6.2434,73.45,36.770,48.57
2022-09-23 17:00,11.34,32.479,24.753,4.575,6.2341,73.39,36.830,48.37
2022-09-23 18:00,11.37,32.472,24.742,4.566,6.2303,73.28,36.850,48.04
2022-09-23 19:00,11.21,32.525,24.812,4.642,6.2498,74.28,36.760,49.09
2022-09-23 20:00,10.74,32.536,24.903,4.635,6.3135,73.42,36.350,48.37
2022-09-23 21:00,11.25,32.549,24.823,4.711,6.2435,75.46,36.820,47.55
2022-09-23 22:00,10.64,32.515,24.904,4.634,6.3281,73.23,36.240,47.45
2022-09-23 23:00,10.82,32.623,24.957,4.666,6.2990,74.08,36.510,47.63
2022-09-24 00:00,11.22,32.526,24.811,4.661,6.2484,74.59,36.770,47.52
2022-09-24 01:00,11.28,32.493,24.774,4.613,6.2416,73.91,36.790,47.64
2022-09-24 02:00,11.23,32.517,24.802,4.621,6.2474,73.97,36.770,47.61
2022-09-24 03:00,11.50,32.437,24.691,4.579,6.2143,73.68,36.930,46.95
2022-09-24 04:00,11.32,32.487,24.763,4.600,6.2365,73.75,36.820,46.89
2022-09-24 05:00,11.21,32.535,24.820,4.700,6.2494,75.21,36.770,47.07
2022-09-24 06:00,10.93,32.546,24.877,4.701,6.2870,74.78,36.530,47.28
2022-09-24 07:00,10.48,32.518,24.934,4.602,6.3501,72.48,36.100,47.66
2022-09-24 08:00,10.70,32.541,24.914,4.656,6.3187,73.68,36.320,47.94
2022-09-24 09:00,10.85,32.557,24.900,4.674,6.2975,74.23,36.470,47.56
2022-09-24 10:00,10.20,32.497,24.965,4.522,6.3901,70.76,35.830,46.98
2022-09-24 11:00,10.69,32.610,24.969,4.632,6.3174,73.32,36.380,46.46
2022-09-24 12:00,10.57,32.557,24.949,4.582,6.3360,72.31,36.220,46.86
2022-09-24 13:00,10.92,32.574,24.902,4.640,6.2872,73.80,36.550,47.90
2022-09-24 14:00,10.51,32.541,24.947,4.536,6.3450,71.49,36.150,48.56
2022-09-24 15:00,10.93,32.565,24.893,4.639,6.2862,73.80,36.550,48.83
2022-09-24 16:00,10.82,32.544,24.895,4.607,6.3021,73.10,36.430,48.84
2022-09-24 17:00,10.75,32.537,24.902,4.550,6.3120,72.08,36.360,48.89
2022-09-24 18:00,10.95,32.557,24.883,4.660,6.2838,74.16,36.560,48.66
2022-09-24 19:00,10.88,32.560,24.898,4.645,6.2933,73.81,36.500,48.54
2022-09-24 20:00,11.03,32.546,24.860,4.623,6.2734,73.69,36.620,49.11
2022-09-24 21:00,10.84,32.556,24.901,4.624,6.2989,73.40,36.460,49.23
2022-09-24 22:00,11.05,32.588,24.889,4.668,6.2690,74.46,36.680,49.59
2022-09-24 23:00,10.19,32.485,24.958,4.431,6.3920,69.32,35.810,49.43
2022-09-25 00:00,10.21,32.468,24.940,4.377,6.3899,68.50,35.810,49.60
2022-09-25 01:00,9.91,32.413,24.948,4.340,6.4346,67.46,35.490,49.73
2022-09-25 02:00,10.45,32.474,24.905,4.401,6.3560,69.24,36.030,50.05
2022-09-25 03:00,10.34,32.462,24.914,4.334,6.3719,68.02,35.920,50.39
2022-09-25 04:00,10.69,32.510,24.892,4.476,6.3213,70.80,36.280,50.31